Theta_e
332 327 329 328 326 325 324 324 327 326 325 324 323 319 322 320 319 319 317 317 317 314
330 330 328 330 330 327 327 323 325 326 325 324 323 322 323 320 320 319 318 317 317 315
329 329 330 330 327 327 328 327 325 322 324 324 321 320 321 321 320 318 318 315 317 316
329 329 329 329 329 326 328 328 324 323 322 323 320 320 319 321 320 318 318 318 315 315
329 329 329 330 329 330 327 328 325 324 322 320 321 320 319 318 320 318 317 318 318 315
329 329 330 330 331 329 328 328 327 325 323 323 320 318 319 321 319 319 319 319 318 318
331 332 331 332 331 329 328 327 326 326 325 324 323 322 321 319 321 320 319 320 320 319
331 331 330 330 330 329 328 326 326 326 325 325 324 321 322 323 322 321 320 319 320 320
327 328 328 330 329 328 327 327 327 326 324 324 323 316 314 316 321 321 321 319 319 321
327 326 328 328 328 327 328 330 328 326 325 323 324 314 311 311 318 320 321 321 320 320
324 325 327 328 328 330 331 328 327 326 326 325 325 314 311 309 316 321 322 322 321 321
324 326 328 328 329 332 330 328 326 326 326 325 325 314 310 311 320 321 322 323 322 321
327 329 328 330 330 330 328 326 326 324 326 322 326 315 309 310 320 319 320 322 322 314
324 332 332 329 328 328 327 326 326 325 326 327 326 326 309 313 318 320 321 319 317 318
Wind_Speed
1 4 2 5 3 4 6 3 4 2 2 4 4 5 6 2 2 2 4 4 5 4
4 1 3 2 2 3 5 5 5 3 2 3 2 0 4 4 3 4 4 3 2 4
4 5 2 3 6 3 3 3 5 6 2 4 5 4 3 4 4 5 4 4 4 3
3 3 3 3 4 5 4 4 5 5 5 5 5 5 4 5 6 6 6 5 5 3
5 4 4 4 4 3 6 5 5 5 5 6 6 6 6 6 6 6 6 5 5 6
6 6 6 5 5 3 5 3 5 5 6 7 6 6 7 7 7 7 6 6 5 6
4 4 4 3 4 4 5 5 6 6 6 7 8 8 8 8 6 5 6 6 6 7
4 4 4 4 4 4 5 5 7 6 7 8 7 7 8 6 6 7 8 8 8 8
5 3 3 4 5 5 6 7 6 7 8 8 7 11 11 10 7 8 9 9 9 9
5 5 5 5 5 6 6 6 7 8 9 11 11 13 13 13 8 8 8 9 10 9
6 5 5 5 5 6 5 7 8 9 10 12 12 15 16 14 8 9 10 11 13 12
6 5 4 4 6 6 6 7 9 10 12 13 14 16 16 12 8 9 11 11 12 12
4 3 4 5 7 7 8 10 9 12 13 14 14 12 13 11 8 7 8 12 11 13
3 4 6 8 9 8 9 10 12 13 13 13 15 16 6 18 15 10 9 7 3 11
Wind_Direction
148 309 334 72 12 334 310 24 79 18 359 333 10 9 350 321 347 313 306 324 327 327
184 217 287 154 232 299 356 337 13 324 327 313 325 194 320 336 323 332 297 316 313 294
159 215 219 271 196 219 272 290 300 304 298 281 292 219 263 296 301 286 283 274 282 315
183 248 240 254 288 181 237 258 275 288 287 268 272 252 219 262 274 265 278 284 291 279
189 214 249 261 264 281 223 241 247 276 288 298 277 267 229 244 266 268 277 271 288 283
190 202 223 232 256 258 284 272 257 250 259 269 275 286 268 240 247 257 272 286 280 282
197 217 226 246 253 254 262 256 256 247 254 255 265 268 266 275 263 282 286 284 275 270
217 218 220 235 247 256 265 266 279 267 259 259 257 266 258 263 271 273 273 274 279 278
237 233 226 225 237 241 251 257 264 276 282 279 276 275 246 247 257 262 269 273 275 276
246 237 217 231 238 241 248 253 260 266 268 272 269 262 269 252 251 257 265 272 270 271
276 262 248 232 237 242 247 251 256 261 263 266 268 259 258 258 247 249 256 259 263 263
278 279 277 262 266 267 257 255 257 260 264 262 265 255 258 258 246 245 265 264 263 254
275 301 291 280 263 252 255 267 270 270 266 268 273 278 269 282 263 270 266 266 271 266
279 262 258 251 256 262 262 264 266 267 270 276 281 285 308 269 278 256 260 286 317 285